| time (UTC) | temp C | wind direction | speed KPH | gust KPH | rain 1hr cm | rain 24hr cm | rain mn cm | humidity % | barometer mb |
| 20260507081704 | 17 | 203 | 9.7 | 17.7 | 0.00 | 0.00 | 0.00 | 74 | 1009.6 |
| 20260507081205 | 17 | 119 | 9.7 | 19.3 | 0.00 | 0.00 | 0.00 | 76 | 1009.6 |
| 20260507080705 | 16 | 147 | 9.7 | 22.5 | 0.00 | 0.00 | 0.00 | 76 | 1009.5 |
| 20260507080205 | 16 | 167 | 11.3 | 22.5 | 0.00 | 0.00 | 0.00 | 76 | 1009.4 |
| 20260507075704 | 16 | 126 | 11.3 | 22.5 | 0.00 | 0.00 | 0.00 | 76 | 1009.4 |
| 20260507075204 | 16 | 101 | 11.3 | 22.5 | 0.00 | 0.00 | 0.00 | 77 | 1009.3 |
| 20260507074704 | 16 | 99 | 11.3 | 20.9 | 0.00 | 0.00 | 0.00 | 77 | 1009.3 |
| 20260507074204 | 15 | 139 | 11.3 | 20.9 | 0.00 | 0.00 | 0.00 | 78 | 1009.3 |
| 20260507073704 | 15 | 147 | 9.7 | 17.7 | 0.00 | 0.00 | 0.00 | 79 | 1009.1 |
| 20260507073205 | 15 | 146 | 9.7 | 17.7 | 0.00 | 0.00 | 0.00 | 79 | 1009.0 |
| 20260507072705 | 15 | 146 | 8.0 | 14.5 | 0.00 | 0.00 | 0.00 | 80 | 1009.1 |
| 20260507072204 | 15 | 115 | 8.0 | 12.9 | 0.00 | 0.00 | 0.00 | 81 | 1009.0 |
| 20260507071204 | 14 | 161 | 6.4 | 14.5 | 0.00 | 0.00 | 0.00 | 81 | 1008.9 |
| 20260507070205 | 14 | 127 | 9.7 | 14.5 | 0.00 | 0.00 | 0.00 | 81 | 1008.7 |
| 20260507065728 | 14 | 126 | 8.0 | 14.5 | 0.00 | 0.00 | 0.00 | 81 | 1008.8 |
| 20260507065204 | 14 | 92 | 8.0 | 14.5 | 0.00 | 0.00 | 0.00 | 81 | 1008.7 |
| 20260507064204 | 13 | 128 | 6.4 | 12.9 | 0.00 | 0.00 | 0.00 | 82 | 1008.5 |
| 20260507063204 | 13 | 88 | 8.0 | 12.9 | 0.00 | 0.00 | 0.00 | 82 | 1008.5 |
| 20260507062705 | 13 | 86 | 6.4 | 11.3 | 0.00 | 0.00 | 0.00 | 82 | 1008.5 |
| 20260507062204 | 13 | 107 | 6.4 | 11.3 | 0.00 | 0.00 | 0.00 | 83 | 1008.5 |
| 20260507061205 | 13 | 105 | 6.4 | 9.7 | 0.00 | 0.00 | 0.00 | 83 | 1008.4 |
| 20260507060704 | 13 | 90 | 6.4 | 9.7 | 0.00 | 0.00 | 0.00 | 83 | 1008.4 |
| 20260507060205 | 13 | 109 | 4.8 | 8.0 | 0.00 | 0.00 | 0.00 | 83 | 1008.4 |
| 20260507055705 | 12 | 98 | 3.2 | 8.0 | 0.00 | 0.00 | 0.00 | 84 | 1008.3 |
| 20260507055205 | 12 | 80 | 3.2 | 8.0 | 0.00 | 0.00 | 0.00 | 84 | 1008.3 |
| 20260507054705 | 12 | 96 | 3.2 | 8.0 | 0.00 | 0.00 | 0.00 | 84 | 1008.2 |
| 20260507054205 | 12 | 91 | 3.2 | 8.0 | 0.00 | 0.00 | 0.00 | 84 | 1008.2 |
| 20260507053704 | 12 | 91 | 4.8 | 8.0 | 0.00 | 0.00 | 0.00 | 84 | 1008.2 |
| 20260507053204 | 12 | 103 | 3.2 | 8.0 | 0.00 | 0.00 | 0.00 | 84 | 1008.1 |
| 20260507052705 | 12 | 224 | 3.2 | 6.4 | 0.00 | 0.00 | 0.00 | 84 | 1008.2 |
| 20260507052205 | 12 | 53 | 1.6 | 6.4 | 0.00 | 0.00 | 0.00 | 84 | 1008.2 |
| 20260507051705 | 12 | 121 | 1.6 | 3.2 | 0.00 | 0.00 | 0.00 | 84 | 1008.2 |
| 20260507051205 | 12 | 121 | 0.0 | 3.2 | 0.00 | 0.00 | 0.00 | 84 | 1008.3 |
| 20260507050705 | 12 | 121 | 0.0 | 3.2 | 0.00 | 0.00 | 0.00 | 84 | 1008.3 |
| 20260507050205 | 12 | 121 | 0.0 | 3.2 | 0.00 | 0.00 | 0.00 | 83 | 1008.3 |
| 20260507045705 | 12 | 121 | 0.0 | 3.2 | 0.00 | 0.00 | 0.00 | 83 | 1008.3 |
| 20260507045205 | 12 | 121 | 0.0 | 6.4 | 0.00 | 0.00 | 0.00 | 83 | 1008.3 |
| 20260507044705 | 12 | 121 | 1.6 | 8.0 | 0.00 | 0.00 | 0.00 | 83 | 1008.1 |
| 20260507043705 | 12 | 130 | 4.8 | 9.7 | 0.00 | 0.00 | 0.00 | 83 | 1008.1 |
| 20260507043205 | 12 | 135 | 4.8 | 9.7 | 0.00 | 0.00 | 0.00 | 82 | 1007.9 |
| 20260507041705 | 12 | 157 | 6.4 | 11.3 | 0.00 | 0.00 | 0.00 | 82 | 1007.9 |
| 20260507041204 | 12 | 147 | 4.8 | 9.7 | 0.00 | 0.00 | 0.00 | 82 | 1007.8 |
| 20260507040705 | 12 | 132 | 4.8 | 9.7 | 0.00 | 0.00 | 0.00 | 82 | 1007.8 |
| 20260507040205 | 12 | 144 | 4.8 | 9.7 | 0.00 | 0.00 | 0.00 | 82 | 1007.7 |
| 20260507035705 | 12 | 139 | 4.8 | 8.0 | 0.00 | 0.00 | 0.00 | 82 | 1007.7 |
| 20260507035205 | 12 | 128 | 4.8 | 8.0 | 0.00 | 0.00 | 0.00 | 82 | 1007.7 |
| 20260507034204 | 12 | 123 | 3.2 | 8.0 | 0.00 | 0.00 | 0.00 | 82 | 1007.7 |
| 20260507033704 | 12 | 112 | 4.8 | 8.0 | 0.00 | 0.00 | 0.00 | 82 | 1007.8 |
| 20260507033205 | 12 | 105 | 4.8 | 6.4 | 0.00 | 0.00 | 0.00 | 81 | 1007.6 |
| 20260507032706 | 12 | 105 | 3.2 | 6.4 | 0.00 | 0.00 | 0.00 | 81 | 1007.6 |
| 20260507032204 | 12 | 105 | 3.2 | 6.4 | 0.00 | 0.00 | 0.00 | 81 | 1007.8 |
| 20260507031705 | 12 | 113 | 3.2 | 6.4 | 0.00 | 0.00 | 0.00 | 80 | 1007.8 |
| 20260507031205 | 12 | 97 | 3.2 | 6.4 | 0.00 | 0.00 | 0.00 | 80 | 1007.8 |
| 20260507030704 | 12 | 93 | 3.2 | 3.2 | 0.00 | 0.00 | 0.00 | 80 | 1007.8 |
| 20260507030205 | 12 | 93 | 1.6 | 3.2 | 0.00 | 0.00 | 0.00 | 80 | 1007.7 |
| 20260507025704 | 12 | 93 | 1.6 | 6.4 | 0.00 | 0.00 | 0.00 | 80 | 1007.7 |
| 20260507025204 | 12 | 93 | 1.6 | 6.4 | 0.00 | 0.00 | 0.00 | 79 | 1007.7 |
| 20260507024204 | 13 | 93 | 1.6 | 8.0 | 0.00 | 0.00 | 0.00 | 79 | 1007.6 |
| 20260507023705 | 13 | 98 | 1.6 | 8.0 | 0.00 | 0.00 | 0.00 | 78 | 1007.6 |
| 20260507023205 | 13 | 139 | 1.6 | 8.0 | 0.00 | 0.00 | 0.00 | 79 | 1007.6 |
| 20260507022704 | 13 | 146 | 3.2 | 8.0 | 0.00 | 0.00 | 0.00 | 79 | 1007.6 |
| 20260507022207 | 13 | 170 | 3.2 | 6.4 | 0.00 | 0.00 | 0.00 | 79 | 1007.6 |
| 20260507021721 | 13 | 145 | 3.2 | 8.0 | 0.00 | 0.00 | 0.00 | 79 | 1007.6 |
| 20260507021205 | 13 | 147 | 3.2 | 8.0 | 0.00 | 0.00 | 0.00 | 79 | 1007.7 |
| 20260507020205 | 13 | 161 | 3.2 | 9.7 | 0.00 | 0.00 | 0.00 | 79 | 1007.7 |
| 20260507015705 | 13 | 165 | 1.6 | 9.7 | 0.00 | 0.00 | 0.00 | 80 | 1007.7 |
| 20260507014705 | 13 | 170 | 4.8 | 12.9 | 0.00 | 0.00 | 0.00 | 79 | 1007.8 |
| 20260507013704 | 13 | 178 | 6.4 | 12.9 | 0.00 | 0.00 | 0.00 | 79 | 1007.9 |
| 20260507012705 | 13 | 168 | 4.8 | 11.3 | 0.00 | 0.00 | 0.00 | 79 | 1007.9 |
| 20260507012204 | 13 | 167 | 4.8 | 9.7 | 0.00 | 0.00 | 0.00 | 80 | 1007.9 |
| 20260507011705 | 13 | 168 | 4.8 | 9.7 | 0.00 | 0.00 | 0.00 | 80 | 1008.0 |
| 20260507011205 | 12 | 173 | 4.8 | 6.4 | 0.00 | 0.00 | 0.00 | 79 | 1008.0 |
| 20260507010705 | 13 | 182 | 3.2 | 8.0 | 0.00 | 0.00 | 0.00 | 79 | 1008.0 |
| 20260507010205 | 13 | 184 | 3.2 | 8.0 | 0.00 | 0.00 | 0.00 | 79 | 1008.0 |
| 20260507005705 | 12 | 195 | 3.2 | 4.8 | 0.00 | 0.00 | 0.00 | 79 | 1008.0 |
| 20260507005204 | 12 | 190 | 1.6 | 6.4 | 0.00 | 0.00 | 0.00 | 80 | 1008.2 |
| 20260507004705 | 12 | 217 | 1.6 | 6.4 | 0.00 | 0.00 | 0.00 | 79 | 1008.2 |
| 20260507003705 | 12 | 202 | 3.2 | 9.7 | 0.00 | 0.00 | 0.00 | 79 | 1008.1 |
| 20260507003204 | 12 | 192 | 4.8 | 9.7 | 0.00 | 0.00 | 0.00 | 79 | 1008.2 |
| 20260507002705 | 13 | 219 | 4.8 | 9.7 | 0.00 | 0.00 | 0.00 | 79 | 1008.3 |
| 20260507002205 | 13 | 194 | 4.8 | 11.3 | 0.00 | 0.00 | 0.00 | 79 | 1008.3 |
| 20260507001205 | 13 | 182 | 4.8 | 11.3 | 0.00 | 0.00 | 0.00 | 79 | 1008.3 |
| 20260507000704 | 13 | 191 | 4.8 | 11.3 | 0.00 | 0.00 | 0.00 | 79 | 1008.4 |
| 20260507000205 | 13 | 197 | 6.4 | 11.3 | 0.00 | 0.00 | 0.00 | 79 | 1008.5 |
| 20260506235705 | 13 | 201 | 6.4 | 9.7 | 0.00 | 0.00 | 0.00 | 79 | 1008.5 |
| 20260506235204 | 13 | 192 | 6.4 | 8.0 | 0.00 | 0.00 | 0.00 | 79 | 1008.5 |
| 20260506234705 | 13 | 178 | 4.8 | 6.4 | 0.00 | 0.00 | 0.00 | 79 | 1008.5 |
| 20260506234205 | 13 | 190 | 4.8 | 6.4 | 0.00 | 0.00 | 0.00 | 80 | 1008.5 |
| 20260506233705 | 13 | 185 | 4.8 | 6.4 | 0.00 | 0.00 | 0.00 | 80 | 1008.5 |
| 20260506233205 | 13 | 192 | 4.8 | 8.0 | 0.00 | 0.00 | 0.00 | 80 | 1008.5 |
| 20260506232705 | 13 | 210 | 4.8 | 8.0 | 0.00 | 0.00 | 0.00 | 80 | 1008.5 |
| 20260506232204 | 13 | 210 | 4.8 | 8.0 | 0.00 | 0.00 | 0.00 | 79 | 1008.5 |
| 20260506231704 | 13 | 205 | 4.8 | 9.7 | 0.00 | 0.00 | 0.00 | 79 | 1008.7 |
| 20260506231204 | 13 | 202 | 6.4 | 9.7 | 0.00 | 0.00 | 0.00 | 78 | 1008.5 |
| 20260506230704 | 13 | 195 | 4.8 | 9.7 | 0.00 | 0.00 | 0.00 | 78 | 1008.6 |
| 20260506225704 | 13 | 189 | 6.4 | 8.0 | 0.00 | 0.00 | 0.00 | 77 | 1008.7 |
| 20260506225204 | 13 | 191 | 6.4 | 8.0 | 0.00 | 0.00 | 0.00 | 76 | 1008.7 |
| 20260506224705 | 13 | 189 | 6.4 | 8.0 | 0.00 | 0.00 | 0.00 | 74 | 1008.7 |
| 20260506224204 | 13 | 184 | 6.4 | 8.0 | 0.00 | 0.00 | 0.00 | 74 | 1008.8 |
| 20260506223705 | 13 | 190 | 4.8 | 8.0 | 0.00 | 0.00 | 0.00 | 73 | 1008.8 |
| 20260506223205 | 13 | 186 | 4.8 | 8.0 | 0.00 | 0.00 | 0.00 | 73 | 1008.8 |
| 20260506222206 | 13 | 193 | 6.4 | 8.0 | 0.00 | 0.00 | 0.00 | 71 | 1008.7 |
| 20260506221705 | 13 | 195 | 6.4 | 8.0 | 0.00 | 0.00 | 0.00 | 70 | 1008.6 |
| 20260506221204 | 13 | 212 | 6.4 | 8.0 | 0.00 | 0.00 | 0.00 | 70 | 1008.6 |
| 20260506220705 | 13 | 196 | 6.4 | 8.0 | 0.00 | 0.00 | 0.00 | 69 | 1008.5 |
| 20260506220205 | 13 | 193 | 4.8 | 8.0 | 0.00 | 0.00 | 0.00 | 68 | 1008.5 |
| 20260506214705 | 15 | 240 | 4.8 | 8.0 | 0.00 | 0.00 | 0.00 | 65 | 1008.6 |
| 20260506214205 | 15 | 245 | 4.8 | 8.0 | 0.00 | 0.00 | 0.00 | 64 | 1008.6 |
| 20260506213205 | 15 | 270 | 4.8 | 11.3 | 0.00 | 0.00 | 0.00 | 63 | 1008.5 |
| 20260506212704 | 15 | 279 | 6.4 | 11.3 | 0.00 | 0.00 | 0.00 | 63 | 1008.4 |
| 20260506212205 | 15 | 275 | 6.4 | 11.3 | 0.00 | 0.00 | 0.00 | 63 | 1008.5 |
| 20260506211705 | 15 | 288 | 6.4 | 9.7 | 0.00 | 0.00 | 0.00 | 63 | 1008.3 |
| 20260506210705 | 15 | 283 | 6.4 | 11.3 | 0.00 | 0.00 | 0.00 | 62 | 1008.3 |
| 20260506210205 | 15 | 278 | 6.4 | 11.3 | 0.00 | 0.00 | 0.00 | 62 | 1008.4 |
| 20260506205204 | 15 | 273 | 6.4 | 11.3 | 0.00 | 0.00 | 0.00 | 62 | 1008.3 |
| 20260506204704 | 15 | 274 | 6.4 | 11.3 | 0.00 | 0.00 | 0.00 | 62 | 1008.3 |
| 20260506204205 | 15 | 270 | 6.4 | 9.7 | 0.00 | 0.00 | 0.00 | 61 | 1008.2 |
| 20260506203705 | 15 | 275 | 6.4 | 9.7 | 0.00 | 0.00 | 0.00 | 61 | 1008.2 |
| 20260506202706 | 16 | 268 | 6.4 | 11.3 | 0.00 | 0.00 | 0.00 | 61 | 1008.2 |
| 20260506202204 | 16 | 263 | 8.0 | 11.3 | 0.00 | 0.00 | 0.00 | 60 | 1008.1 |
| 20260506201705 | 16 | 266 | 8.0 | 11.3 | 0.00 | 0.00 | 0.00 | 59 | 1008.1 |
| 20260506201205 | 16 | 258 | 6.4 | 9.7 | 0.00 | 0.00 | 0.00 | 59 | 1008.2 |
| 20260506200705 | 16 | 265 | 8.0 | 9.7 | 0.00 | 0.00 | 0.00 | 58 | 1008.3 |
| 20260506200205 | 16 | 263 | 8.0 | 11.3 | 0.00 | 0.00 | 0.00 | 58 | 1008.2 |
| 20260506195204 | 17 | 274 | 8.0 | 12.9 | 0.00 | 0.00 | 0.00 | 57 | 1008.1 |
| 20260506194704 | 17 | 247 | 8.0 | 12.9 | 0.00 | 0.00 | 0.00 | 56 | 1007.8 |
| 20260506194222 | 17 | 271 | 8.0 | 12.9 | 0.00 | 0.00 | 0.00 | 55 | 1007.8 |
| 20260506193705 | 17 | 261 | 8.0 | 16.1 | 0.00 | 0.00 | 0.00 | 54 | 1007.7 |
| 20260506192705 | 18 | 254 | 9.7 | 16.1 | 0.00 | 0.00 | 0.00 | 52 | 1007.7 |
| 20260506192205 | 18 | 257 | 8.0 | 14.5 | 0.00 | 0.00 | 0.00 | 52 | 1007.7 |
| 20260506191204 | 18 | 233 | 8.0 | 17.7 | 0.00 | 0.00 | 0.00 | 51 | 1007.7 |
| 20260506190705 | 18 | 282 | 9.7 | 17.7 | 0.00 | 0.00 | 0.00 | 51 | 1007.6 |
| 20260506190205 | 19 | 178 | 9.7 | 17.7 | 0.00 | 0.00 | 0.00 | 50 | 1007.6 |
| 20260506185704 | 19 | 211 | 9.7 | 19.3 | 0.00 | 0.00 | 0.00 | 50 | 1007.6 |
| 20260506185204 | 19 | 256 | 9.7 | 19.3 | 0.00 | 0.00 | 0.00 | 50 | 1007.6 |
| 20260506184705 | 20 | 281 | 11.3 | 20.9 | 0.00 | 0.00 | 0.00 | 50 | 1007.4 |
| 20260506184205 | 20 | 268 | 11.3 | 20.9 | 0.00 | 0.00 | 0.00 | 49 | 1007.3 |
| 20260506183705 | 20 | 267 | 11.3 | 20.9 | 0.00 | 0.00 | 0.00 | 49 | 1007.3 |
| 20260506183205 | 20 | 257 | 11.3 | 20.9 | 0.00 | 0.00 | 0.00 | 47 | 1007.5 |
| 20260506182705 | 20 | 266 | 11.3 | 22.5 | 0.00 | 0.00 | 0.00 | 46 | 1007.6 |
| 20260506182204 | 20 | 230 | 12.9 | 22.5 | 0.00 | 0.00 | 0.00 | 46 | 1007.6 |
| 20260506181704 | 21 | 248 | 14.5 | 25.7 | 0.00 | 0.00 | 0.00 | 46 | 1007.6 |
| 20260506181204 | 21 | 225 | 12.9 | 25.7 | 0.00 | 0.00 | 0.00 | 45 | 1007.4 |
| 20260506180705 | 21 | 243 | 12.9 | 25.7 | 0.00 | 0.00 | 0.00 | 45 | 1007.4 |
| 20260506180205 | 21 | 252 | 11.3 | 22.5 | 0.00 | 0.00 | 0.00 | 44 | 1007.5 |
| 20260506175705 | 21 | 265 | 11.3 | 22.5 | 0.00 | 0.00 | 0.00 | 44 | 1007.5 |
| 20260506175205 | 21 | 290 | 12.9 | 22.5 | 0.00 | 0.00 | 0.00 | 43 | 1007.6 |
| 20260506174704 | 21 | 235 | 12.9 | 22.5 | 0.00 | 0.00 | 0.00 | 42 | 1007.5 |
| 20260506174205 | 22 | 256 | 12.9 | 22.5 | 0.00 | 0.00 | 0.00 | 42 | 1007.5 |
| 20260506173705 | 22 | 251 | 12.9 | 22.5 | 0.00 | 0.00 | 0.00 | 40 | 1007.4 |
| 20260506173205 | 22 | 250 | 12.9 | 22.5 | 0.00 | 0.00 | 0.00 | 41 | 1007.4 |
| 20260506172705 | 22 | 240 | 11.3 | 22.5 | 0.00 | 0.00 | 0.00 | 40 | 1007.4 |
| 20260506172205 | 22 | 206 | 12.9 | 22.5 | 0.00 | 0.00 | 0.00 | 40 | 1007.5 |
| 20260506171705 | 22 | 254 | 12.9 | 25.7 | 0.00 | 0.00 | 0.00 | 39 | 1007.6 |
| 20260506171204 | 22 | 225 | 12.9 | 25.7 | 0.00 | 0.00 | 0.00 | 39 | 1007.7 |
| 20260506170704 | 22 | 269 | 12.9 | 27.4 | 0.00 | 0.00 | 0.00 | 39 | 1007.6 |
| 20260506170205 | 22 | 223 | 14.5 | 27.4 | 0.00 | 0.00 | 0.00 | 39 | 1007.6 |
| 20260506165205 | 22 | 227 | 16.1 | 25.7 | 0.00 | 0.00 | 0.00 | 38 | 1007.6 |
| 20260506164705 | 22 | 218 | 16.1 | 25.7 | 0.00 | 0.00 | 0.00 | 38 | 1007.6 |
| 20260506164204 | 22 | 229 | 14.5 | 29.0 | 0.00 | 0.00 | 0.00 | 38 | 1007.6 |
| 20260506163704 | 23 | 228 | 14.5 | 29.0 | 0.00 | 0.00 | 0.00 | 38 | 1007.7 |
| 20260506163205 | 23 | 240 | 16.1 | 29.0 | 0.00 | 0.00 | 0.00 | 38 | 1007.6 |
| 20260506162705 | 23 | 200 | 16.1 | 27.4 | 0.00 | 0.00 | 0.00 | 38 | 1007.8 |
| 20260506162223 | 23 | 229 | 14.5 | 25.7 | 0.00 | 0.00 | 0.00 | 38 | 1007.8 |
| 20260506161705 | 23 | 240 | 12.9 | 25.7 | 0.00 | 0.00 | 0.00 | 38 | 1007.8 |
| 20260506161209 | 24 | 247 | 14.5 | 25.7 | 0.00 | 0.00 | 0.00 | 38 | 1007.7 |
| 20260506160705 | 24 | 276 | 12.9 | 25.7 | 0.00 | 0.00 | 0.00 | 37 | 1007.6 |
| 20260506160222 | 24 | 167 | 9.7 | 24.1 | 0.00 | 0.00 | 0.00 | 37 | 1007.7 |
| 20260506155723 | 24 | 155 | 8.0 | 17.7 | 0.00 | 0.00 | 0.00 | 36 | 1007.8 |
| 20260506155204 | 24 | 210 | 8.0 | 27.4 | 0.00 | 0.00 | 0.00 | 35 | 1007.9 |
| 20260506154705 | 24 | 265 | 8.0 | 27.4 | 0.00 | 0.00 | 0.00 | 33 | 1007.9 |
| 20260506153704 | 23 | 167 | 9.7 | 19.3 | 0.00 | 0.00 | 0.00 | 33 | 1007.9 |
| 20260506152705 | 24 | 291 | 4.8 | 11.3 | 0.00 | 0.00 | 0.00 | 31 | 1008.0 |
| 20260506152205 | 24 | 208 | 3.2 | 9.7 | 0.00 | 0.00 | 0.00 | 30 | 1008.1 |
| 20260506151705 | 24 | 62 | 3.2 | 9.7 | 0.00 | 0.00 | 0.00 | 29 | 1008.2 |
| 20260506151205 | 24 | 290 | 4.8 | 11.3 | 0.00 | 0.00 | 0.00 | 30 | 1008.3 |
| 20260506150706 | 24 | 355 | 4.8 | 14.5 | 0.00 | 0.00 | 0.00 | 28 | 1008.3 |
| 20260506150205 | 24 | 331 | 4.8 | 14.5 | 0.00 | 0.00 | 0.00 | 31 | 1008.4 |
| 20260506145204 | 23 | 99 | 6.4 | 14.5 | 0.00 | 0.00 | 0.00 | 29 | 1008.4 |
| 20260506144705 | 23 | 210 | 8.0 | 16.1 | 0.00 | 0.00 | 0.00 | 32 | 1008.5 |
| 20260506144205 | 23 | 248 | 8.0 | 16.1 | 0.00 | 0.00 | 0.00 | 32 | 1008.7 |
| 20260506143704 | 23 | 250 | 8.0 | 16.1 | 0.00 | 0.00 | 0.00 | 31 | 1008.7 |
| 20260506143204 | 23 | 270 | 4.8 | 16.1 | 0.00 | 0.00 | 0.00 | 31 | 1008.7 |
| 20260506142705 | 23 | 61 | 4.8 | 16.1 | 0.00 | 0.00 | 0.00 | 30 | 1008.7 |
| 20260506142205 | 23 | 227 | 8.0 | 16.1 | 0.00 | 0.00 | 0.00 | 30 | 1008.9 |
| 20260506141705 | 23 | 269 | 8.0 | 12.9 | 0.00 | 0.00 | 0.00 | 31 | 1009.1 |
| 20260506141205 | 23 | 260 | 4.8 | 12.9 | 0.00 | 0.00 | 0.00 | 32 | 1009.2 |
| 20260506140704 | 23 | 355 | 4.8 | 14.5 | 0.00 | 0.00 | 0.00 | 32 | 1009.1 |
| 20260506140205 | 23 | 330 | 8.0 | 17.7 | 0.00 | 0.00 | 0.00 | 32 | 1009.2 |
| 20260506135704 | 23 | 277 | 9.7 | 17.7 | 0.00 | 0.00 | 0.00 | 33 | 1009.2 |
| 20260506135204 | 23 | 264 | 6.4 | 16.1 | 0.00 | 0.00 | 0.00 | 35 | 1009.2 |
| 20260506134705 | 23 | 184 | 6.4 | 16.1 | 0.00 | 0.00 | 0.00 | 35 | 1009.2 |
| 20260506134204 | 23 | 326 | 8.0 | 16.1 | 0.00 | 0.00 | 0.00 | 33 | 1009.3 |
| 20260506133705 | 23 | 262 | 6.4 | 11.3 | 0.00 | 0.00 | 0.00 | 34 | 1009.2 |
| 20260506133206 | 23 | 288 | 3.2 | 17.7 | 0.00 | 0.00 | 0.00 | 33 | 1009.3 |
| 20260506132705 | 23 | 322 | 6.4 | 19.3 | 0.00 | 0.00 | 0.00 | 34 | 1009.4 |
| 20260506132204 | 22 | 195 | 9.7 | 19.3 | 0.00 | 0.00 | 0.00 | 35 | 1009.5 |
| 20260506131705 | 23 | 225 | 8.0 | 19.3 | 0.00 | 0.00 | 0.00 | 34 | 1009.6 |
| 20260506131205 | 22 | 217 | 4.8 | 16.1 | 0.00 | 0.00 | 0.00 | 37 | 1009.6 |
| 20260506130704 | 22 | 155 | 6.4 | 17.7 | 0.00 | 0.00 | 0.00 | 36 | 1009.7 |
| 20260506130205 | 22 | 123 | 8.0 | 17.7 | 0.00 | 0.00 | 0.00 | 37 | 1009.7 |
| 20260506125704 | 22 | 192 | 8.0 | 17.7 | 0.00 | 0.00 | 0.00 | 35 | 1009.7 |
| 20260506125204 | 23 | 149 | 8.0 | 14.5 | 0.00 | 0.00 | 0.00 | 36 | 1009.9 |
| 20260506124705 | 22 | 171 | 6.4 | 12.9 | 0.00 | 0.00 | 0.00 | 36 | 1009.8 |
| 20260506124204 | 22 | 57 | 6.4 | 12.9 | 0.00 | 0.00 | 0.00 | 38 | 1009.9 |
| 20260506123704 | 22 | 104 | 6.4 | 16.1 | 0.00 | 0.00 | 0.00 | 36 | 1009.8 |
| 20260506123205 | 22 | 59 | 6.4 | 16.1 | 0.00 | 0.00 | 0.00 | 36 | 1010.0 |
| 20260506122705 | 22 | 123 | 4.8 | 16.1 | 0.00 | 0.00 | 0.00 | 35 | 1010.1 |
| 20260506122205 | 22 | 30 | 3.2 | 14.5 | 0.00 | 0.00 | 0.00 | 37 | 1010.1 |
| 20260506121704 | 22 | 338 | 4.8 | 14.5 | 0.00 | 0.00 | 0.00 | 36 | 1010.2 |
| 20260506121205 | 22 | 296 | 6.4 | 14.5 | 0.00 | 0.00 | 0.00 | 38 | 1010.3 |
| 20260506115705 | 21 | 283 | 6.4 | 11.3 | 0.00 | 0.00 | 0.00 | 38 | 1010.5 |
| 20260506115205 | 21 | 308 | 4.8 | 11.3 | 0.00 | 0.00 | 0.00 | 37 | 1010.4 |
| 20260506114705 | 21 | 264 | 4.8 | 14.5 | 0.00 | 0.00 | 0.00 | 37 | 1010.5 |
| 20260506114205 | 21 | 270 | 6.4 | 14.5 | 0.00 | 0.00 | 0.00 | 38 | 1010.4 |
| 20260506113705 | 21 | 186 | 6.4 | 14.5 | 0.00 | 0.00 | 0.00 | 38 | 1010.5 |
| 20260506112705 | 21 | 188 | 4.8 | 11.3 | 0.00 | 0.00 | 0.00 | 39 | 1010.6 |
| 20260506112204 | 21 | 211 | 4.8 | 11.3 | 0.00 | 0.00 | 0.00 | 38 | 1010.6 |
| 20260506111705 | 21 | 177 | 3.2 | 8.0 | 0.00 | 0.00 | 0.00 | 39 | 1010.6 |
| 20260506111205 | 21 | 355 | 4.8 | 8.0 | 0.00 | 0.00 | 0.00 | 38 | 1010.6 |
| 20260506110704 | 21 | 72 | 6.4 | 9.7 | 0.00 | 0.00 | 0.00 | 39 | 1010.7 |
| 20260506110228 | 21 | 350 | 4.8 | 9.7 | 0.00 | 0.00 | 0.00 | 36 | 1010.7 |
| 20260506105704 | 21 | 338 | 4.8 | 11.3 | 0.00 | 0.00 | 0.00 | 36 | 1010.8 |
| 20260506105205 | 21 | 132 | 6.4 | 11.3 | 0.00 | 0.00 | 0.00 | 41 | 1010.8 |
| 20260506104705 | 21 | 145 | 6.4 | 11.3 | 0.00 | 0.00 | 0.00 | 41 | 1010.9 |
| 20260506103705 | 21 | 161 | 3.2 | 8.0 | 0.00 | 0.00 | 0.00 | 43 | 1011.0 |
| 20260506103205 | 20 | 285 | 3.2 | 11.3 | 0.00 | 0.00 | 0.00 | 43 | 1011.0 |
| 20260506102705 | 20 | 283 | 4.8 | 12.9 | 0.00 | 0.00 | 0.00 | 42 | 1011.0 |
| 20260506101704 | 20 | 48 | 3.2 | 12.9 | 0.00 | 0.00 | 0.00 | 45 | 1011.0 |
| 20260506101205 | 20 | 58 | 1.6 | 6.4 | 0.00 | 0.00 | 0.00 | 45 | 1011.1 |
| 20260506100234 | 20 | 32 | 1.6 | 11.3 | 0.00 | 0.00 | 0.00 | 46 | 1011.1 |
| 20260506095705 | 20 | 184 | 4.8 | 11.3 | 0.00 | 0.00 | 0.00 | 49 | 1011.1 |
| 20260506095204 | 19 | 163 | 4.8 | 11.3 | 0.00 | 0.00 | 0.00 | 47 | 1011.1 |
| 20260506094705 | 19 | 108 | 3.2 | 9.7 | 0.00 | 0.00 | 0.00 | 48 | 1010.9 |
| 20260506094205 | 18 | 72 | 3.2 | 9.7 | 0.00 | 0.00 | 0.00 | 50 | 1011.0 |
| 20260506093204 | 18 | 68 | 4.8 | 9.7 | 0.00 | 0.00 | 0.00 | 49 | 1011.0 |
| 20260506092705 | 18 | 81 | 4.8 | 11.3 | 0.00 | 0.00 | 0.00 | 50 | 1010.9 |
| 20260506092205 | 18 | 123 | 4.8 | 11.3 | 0.00 | 0.00 | 0.00 | 51 | 1010.9 |
| 20260506091705 | 18 | 74 | 6.4 | 11.3 | 0.00 | 0.00 | 0.00 | 51 | 1011.0 |
| 20260506091205 | 18 | 98 | 4.8 | 11.3 | 0.00 | 0.00 | 0.00 | 52 | 1010.9 |
| 20260506090705 | 18 | 115 | 4.8 | 11.3 | 0.00 | 0.00 | 0.00 | 51 | 1011.1 |
| 20260506090205 | 18 | 70 | 3.2 | 11.3 | 0.00 | 0.00 | 0.00 | 51 | 1011.0 |
| 20260506085204 | 17 | 0 | 3.2 | 11.3 | 0.00 | 0.00 | 0.00 | 53 | 1011.1 |
| 20260506084705 | 17 | 24 | 4.8 | 9.7 | 0.00 | 0.00 | 0.00 | 55 | 1011.1 |
| 20260506083705 | 17 | 100 | 4.8 | 11.3 | 0.00 | 0.00 | 0.00 | 54 | 1011.1 |
| 20260506082705 | 17 | 68 | 4.8 | 11.3 | 0.00 | 0.00 | 0.00 | 56 | 1010.9 |
| 20260506082205 | 16 | 13 | 4.8 | 11.3 | 0.00 | 0.00 | 0.00 | 56 | 1011.0 |